CZ-4 DEB, 26125

Orbit data source: Space-Track

CZ-4 DEB, 26125 is space debris in SSO originally from a launch on Thu, 14 Oct 1999 UTC launched from the Taiyaun Space Center, China (TSC). Debris objects in space refer to the collection of defunct objects orbiting the Earth. Examples of debris include non-operational satellites, rocket bodies, and fragments generated from explosions, collisions, or faulty payload assembly.

Loading next visibility...
Identifier
26125, 1999-057M
Orbit
SSO
Country
Flag of CNCN / PRC
Related business
Manufacturer
Unknown
Mission
Spacecraft
Bus & Motor
Unknown
Mass
Unknown
Launch date (UTC)
1999-10-14 (26 years ago)
Launch vehicle
Unknown
Launch site
Taiyaun Space Center, China (TSC)
Object type
Payload
Rocket body
Debris
Shape & HBR
Unknown shape, 0.1 m
Radar Cross Section
Small (<0.1 m²)

Expand to show TLE details & history
Last TLE update: 12 hours ago

TLE from 12 hours ago
0 CZ-4 DEB
1 26125U 99057M   25289.03695125  .00000542  00000-0  25049-3 0  9997
2 26125  99.2450 315.1547 0240548 246.8666 167.2667 14.11285448308345
Epoch: 2025-10-16T00:53Z
TLE epoch observation values (Epoch: 2025-10-16T00:53:12.587Z)
Latitude
53.78243°
Longitude
-95.72465°
Altitude
1,033.689 km
Speed
7.253 km/s
True Right ascension
20h 09m 31s
True Declination
53° 37' 28"
Sunlit
Object was in daylight at epoch
Visualization orbit readout
Latitude
Unknown
Longitude
Unknown
Altitude
Unknown
Speed
Unknown
Apparent Right ascension
Unknown
Apparent Declination
Unknown
Sunlit
N/A
Visualization observer readout
Local Sidereal Time
07:57:56
Azimuth
Unknown
Elevation
Unknown
Doppler factor
Unknown
Orbital elements
Apogee altitude
1,026.094 km
Perigee altitude
678.247 km
Semi-major axis
7,230.307 km
Eccentricity
0.02405
Inclination
99.245°
RAAN
315.1547°
Arg. of periapsis
246.8666°
True anomaly
167.85692°
Mean anomaly
167.2667°
Eccentric anomaly
167.56351°
Mean motion
3.53027 °/min
Orbital period
101.98 mins
BSTAR
0.00025049
Loading maneuver chart data...
Computing Atmospheric mass density...
Loading historical data...
Loading historical data...
Loading historical data...
Loading historical data...
Loading historical data...
Loading historical data...
Loading historical data...

Documentation

Showing up to 5 results
|